This is the latest recevied weather packets stored in our database for station/object CALDNA-WX. If no packets are shown the sender has not sent any weather packets the latest 10 day(s).
| Time | Temp. | Humidity | Pressure | Rain* | Wind** | Luminosity | Snow |
|---|---|---|---|---|---|---|---|
| 1778202045 | 10° C | 49% | 984.1 hPa | 0 mm | - | - | - |
| 1778201122 | 10° C | 42% | 984.7 hPa | 0 mm | - | - | - |
| 1778200239 | 10° C | 46% | 984.6 hPa | 0 mm | - | - | - |
| 1778199321 | 10° C | 46% | 984.6 hPa | 0 mm | - | - | - |
| 1778198451 | 10.56° C | 46% | 984.6 hPa | 0 mm | - | - | - |
| 1778197521 | 10.56° C | 43% | 983.8 hPa | 0 mm | - | - | - |
| 1778196640 | 10.56° C | 42% | 984.5 hPa | 0 mm | - | - | - |
| 1778195721 | 11.11° C | 42% | 984.5 hPa | 0 mm | - | - | - |
| 1778194844 | 11.11° C | 42% | 984.5 hPa | 0 mm | - | - | - |
| 1778193921 | 11.11° C | 41% | 984.5 hPa | 0 mm | - | - | - |
| 1778193040 | 11.67° C | 38% | 984.5 hPa | 0 mm | - | - | - |
| 1778192123 | 11.11° C | 38% | 984.8 hPa | 0 mm | - | - | - |
| 1778191250 | 11.67° C | 38% | 984.8 hPa | 0 mm | - | - | - |
| 1778190327 | 11.67° C | 38% | 985.2 hPa | 0 mm | - | - | - |
| 1778189439 | 11.67° C | 37% | 985.5 hPa | 0 mm | - | - | - |
| 1778188526 | 11.11° C | 37% | 985.5 hPa | 0 mm | - | - | - |
| 1778187649 | 11.11° C | 37% | 985.5 hPa | 0 mm | - | - | - |
| 1778186723 | 11.11° C | 38% | 985.5 hPa | 0 mm | - | - | - |
| 1778185837 | 11.67° C | 35% | 985.1 hPa | 0 mm | - | - | - |
| 1778184923 | 11.67° C | 35% | 985.1 hPa | 0 mm | - | - | - |
| 1778184049 | 11.67° C | 35% | 985.1 hPa | 0 mm | - | - | - |
| 1778183125 | 11.67° C | 38% | 985.3 hPa | 0 mm | - | - | - |
| 1778182241 | 11.67° C | 38% | 985.3 hPa | 0 mm | - | - | - |
| 1778181326 | 11.67° C | 38% | 985.3 hPa | 0 mm | - | - | - |
| 1778180447 | 11.67° C | 38% | 985.3 hPa | 0 mm | - | - | - |
* Rain latest hour (hover to see other rain measurements)
** Current wind speed in m/s (hover to see current wind gust speed)